• în România
  • Lista ţărilor
  • Pe 7 zile
  • Temperatura apei
  • Hartă satelitară
  • Meteo pe hartă
  • Widget-uri
  • user-avatar
    Intrare

    Meteo pe oră la Orbelyanovka

    Astăzi, 26 Septembrie, Miercuri

    Timp Temperatura Precipitaţii Vânt Presiune Umiditate
    00:00 +17°C° 0.1 mm 4 m/s 732 mmHg 83%
    01:00 +17°C° 0.1 mm 4 m/s 732 mmHg 83%
    02:00 +15°C° 0.1 mm 4 m/s 732 mmHg 83%
    03:00 +14°C° 0.1 mm 4 m/s 732 mmHg 83%
    04:00 +14°C° 0.1 mm 3 m/s 733 mmHg 83%
    05:00 +13°C° 0.1 mm 3 m/s 733 mmHg 83%
    06:00 +13°C° 0.1 mm 3 m/s 733 mmHg 83%
    07:00 +13°C° 0.4 mm 3 m/s 734 mmHg 83%
    08:00 +12°C° 0.4 mm 3 m/s 734 mmHg 84%
    09:00 +12°C° 0.4 mm 3 m/s 734 mmHg 85%
    10:00 +12°C° 0.3 mm 3 m/s 735 mmHg 84%
    11:00 +12°C° 0.3 mm 3 m/s 735 mmHg 84%
    12:00 +12°C° 0.3 mm 2 m/s 735 mmHg 84%
    13:00 +13°C° 0.2 mm 2 m/s 735 mmHg 82%
    14:00 +13°C° 0.2 mm 2 m/s 735 mmHg 81%
    15:00 +13°C° 0.2 mm 2 m/s 736 mmHg 80%
    16:00 +13°C° 0.1 mm 2 m/s 736 mmHg 80%
    17:00 +13°C° 0.1 mm 2 m/s 736 mmHg 80%
    18:00 +13°C° 0.1 mm 1 m/s 736 mmHg 80%
    19:00 +13°C° 0.1 mm 1 m/s 736 mmHg 80%
    20:00 +13°C° 0.1 mm 1 m/s 736 mmHg 80%
    21:00 +12°C° 0.1 mm 1 m/s 737 mmHg 80%
    22:00 +12°C° 0 mm 1 m/s 737 mmHg 80%
    23:00 +12°C° 0 mm 1 m/s 737 mmHg 80%

    Mâine, 27 Septembrie, Joi

    Timp Temperatura Precipitaţii Vânt Presiune Umiditate
    00:00 +12°C° 0 mm 1 m/s 737 mmHg 79%
    01:00 +12°C° 0 mm 1 m/s 737 mmHg 80%
    02:00 +12°C° 0 mm 1 m/s 737 mmHg 80%
    03:00 +12°C° 0 mm 1 m/s 737 mmHg 80%
    04:00 +12°C° 0 mm 1 m/s 737 mmHg 81%
    05:00 +11°C° 0 mm 1 m/s 737 mmHg 81%
    06:00 +11°C° 0 mm 1 m/s 737 mmHg 82%
    07:00 +12°C° 0.1 mm 1 m/s 737 mmHg 77%
    08:00 +13°C° 0.1 mm 2 m/s 737 mmHg 73%
    09:00 +14°C° 0.1 mm 2 m/s 737 mmHg 69%
    10:00 +15°C° 0 mm 2 m/s 737 mmHg 64%
    11:00 +17°C° 0 mm 3 m/s 737 mmHg 58%
    12:00 +18°C° 0 mm 3 m/s 736 mmHg 53%
    13:00 +18°C° 0 mm 3 m/s 736 mmHg 52%
    14:00 +19°C° 0 mm 3 m/s 736 mmHg 51%
    15:00 +19°C° 0 mm 3 m/s 736 mmHg 50%
    16:00 +18°C° 0 mm 2 m/s 735 mmHg 54%
    17:00 +17°C° 0 mm 2 m/s 735 mmHg 59%
    18:00 +16°C° 0 mm 2 m/s 735 mmHg 63%
    19:00 +15°C° 0 mm 1 m/s 735 mmHg 66%
    20:00 +15°C° 0 mm 1 m/s 736 mmHg 69%
    21:00 +14°C° 0 mm 1 m/s 736 mmHg 72%
    22:00 +14°C° 0 mm 1 m/s 736 mmHg 73%
    23:00 +13°C° 0 mm 1 m/s 736 mmHg 74%

    Poimâine, 28 Septembrie, Vineri

    Timp Temperatura Precipitaţii Vânt Presiune Umiditate
    00:00 +13°C° 0 mm 1 m/s 736 mmHg 75%
    01:00 +13°C° 0 mm 1 m/s 736 mmHg 76%
    02:00 +13°C° 0 mm 1 m/s 736 mmHg 76%
    03:00 +13°C° 0 mm 1 m/s 736 mmHg 77%
    04:00 +12°C° 0 mm 1 m/s 736 mmHg 78%
    05:00 +12°C° 0 mm 1 m/s 736 mmHg 78%
    06:00 +11°C° 0 mm 0 m/s 735 mmHg 79%
    07:00 +13°C° 0 mm 1 m/s 735 mmHg 73%
    08:00 +15°C° 0 mm 1 m/s 735 mmHg 67%
    09:00 +17°C° 0 mm 2 m/s 735 mmHg 61%
    10:00 +18°C° 0 mm 2 m/s 735 mmHg 57%
    11:00 +20°C° 0 mm 3 m/s 735 mmHg 53%
    12:00 +21°C° 0 mm 3 m/s 734 mmHg 50%
    13:00 +22°C° 0 mm 3 m/s 734 mmHg 49%
    14:00 +22°C° 0 mm 4 m/s 734 mmHg 49%
    15:00 +22°C° 0 mm 4 m/s 733 mmHg 48%
    16:00 +21°C° 0 mm 3 m/s 733 mmHg 53%
    17:00 +19°C° 0 mm 3 m/s 733 mmHg 59%
    18:00 +18°C° 0 mm 3 m/s 732 mmHg 64%
    19:00 +17°C° 0 mm 2 m/s 732 mmHg 67%
    20:00 +17°C° 0 mm 2 m/s 732 mmHg 70%
    21:00 +16°C° 0 mm 2 m/s 732 mmHg 72%
    22:00 +16°C° 0 mm 2 m/s 732 mmHg 74%
    23:00 +15°C° 0 mm 2 m/s 732 mmHg 75%

    29 Septembrie, Sâmbătă

    Timp Temperatura Precipitaţii Vânt Presiune Umiditate
    00:00 +15°C° 0 mm 1 m/s 731 mmHg 77%
    01:00 +15°C° 0 mm 1 m/s 731 mmHg 78%
    02:00 +15°C° 0 mm 1 m/s 731 mmHg 79%
    03:00 +14°C° 0 mm 1 m/s 731 mmHg 80%
    04:00 +14°C° 0 mm 1 m/s 731 mmHg 81%
    05:00 +14°C° 0 mm 1 m/s 731 mmHg 82%
    06:00 +14°C° 0 mm 1 m/s 731 mmHg 83%
    07:00 +15°C° 0 mm 1 m/s 731 mmHg 78%
    08:00 +18°C° 0 mm 1 m/s 731 mmHg 72%
    09:00 +20°C° 0 mm 1 m/s 731 mmHg 66%
    10:00 +20°C° 0 mm 2 m/s 731 mmHg 62%
    11:00 +23°C° 0 mm 2 m/s 731 mmHg 58%
    12:00 +24°C° 0 mm 3 m/s 731 mmHg 54%
    13:00 +25°C° 0 mm 3 m/s 730 mmHg 53%
    14:00 +25°C° 0 mm 3 m/s 730 mmHg 52%
    15:00 +26°C° 0 mm 3 m/s 730 mmHg 51%
    16:00 +24°C° 0 mm 3 m/s 730 mmHg 57%
    17:00 +23°C° 0 mm 2 m/s 730 mmHg 63%
    18:00 +20°C° 0 mm 2 m/s 730 mmHg 69%
    19:00 +20°C° 0 mm 2 m/s 730 mmHg 72%
    20:00 +19°C° 0 mm 2 m/s 730 mmHg 75%
    21:00 +19°C° 0 mm 1 m/s 730 mmHg 78%
    22:00 +19°C° 0 mm 1 m/s 730 mmHg 77%
    23:00 +19°C° 0 mm 1 m/s 730 mmHg 77%

    30 Septembrie, Duminică

    Timp Temperatura Precipitaţii Vânt Presiune Umiditate
    00:00 +19°C° 0 mm 1 m/s 730 mmHg 76%
    01:00 +19°C° 0 mm 1 m/s 730 mmHg 77%
    02:00 +19°C° 0 mm 1 m/s 730 mmHg 77%
    03:00 +18°C° 0 mm 1 m/s 730 mmHg 78%
    04:00 +18°C° 0 mm 1 m/s 730 mmHg 77%
    05:00 +18°C° 0 mm 1 m/s 730 mmHg 76%
    06:00 +18°C° 0 mm 1 m/s 730 mmHg 75%
    07:00 +19°C° 0 mm 1 m/s 731 mmHg 69%
    08:00 +21°C° 0 mm 1 m/s 731 mmHg 64%
    09:00 +23°C° 0 mm 1 m/s 731 mmHg 59%
    10:00 +24°C° 0 mm 2 m/s 731 mmHg 55%
    11:00 +25°C° 0 mm 2 m/s 731 mmHg 51%
    12:00 +26°C° 0 mm 3 m/s 731 mmHg 47%
    13:00 +27°C° 0 mm 3 m/s 731 mmHg 46%
    14:00 +27°C° 0 mm 3 m/s 731 mmHg 45%
    15:00 +27°C° 0 mm 3 m/s 731 mmHg 44%
    16:00 +26°C° 0 mm 3 m/s 731 mmHg 49%
    17:00 +24°C° 0 mm 3 m/s 731 mmHg 53%
    18:00 +22°C° 0 mm 3 m/s 731 mmHg 57%
    19:00 +21°C° 0 mm 3 m/s 731 mmHg 59%
    20:00 +20°C° 0 mm 2 m/s 732 mmHg 61%
    21:00 +19°C° 0 mm 2 m/s 732 mmHg 63%
    22:00 +19°C° 0 mm 2 m/s 731 mmHg 64%
    23:00 +18°C° 0 mm 2 m/s 731 mmHg 64%

    1 Octombrie, Luni

    Timp Temperatura Precipitaţii Vânt Presiune Umiditate
    00:00 +18°C° 0 mm 2 m/s 731 mmHg 65%
    01:00 +17°C° 0 mm 2 m/s 731 mmHg 65%
    02:00 +17°C° 0 mm 2 m/s 731 mmHg 65%
    03:00 +17°C° 0 mm 2 m/s 731 mmHg 65%
    04:00 +16°C° 0 mm 2 m/s 731 mmHg 65%
    05:00 +16°C° 0 mm 2 m/s 731 mmHg 64%
    06:00 +16°C° 0 mm 2 m/s 731 mmHg 64%
    07:00 +18°C° 0 mm 3 m/s 731 mmHg 59%
    08:00 +19°C° 0 mm 4 m/s 731 mmHg 54%
    09:00 +21°C° 0 mm 4 m/s 731 mmHg 49%
    10:00 +22°C° 0 mm 5 m/s 731 mmHg 46%
    11:00 +25°C° 0 mm 5 m/s 731 mmHg 44%
    12:00 +26°C° 0 mm 6 m/s 731 mmHg 42%
    13:00 +26°C° 0 mm 6 m/s 731 mmHg 42%
    14:00 +26°C° 0 mm 6 m/s 730 mmHg 42%
    15:00 +26°C° 0 mm 6 m/s 730 mmHg 42%
    16:00 +24°C° 0 mm 6 m/s 730 mmHg 46%
    17:00 +22°C° 0 mm 5 m/s 730 mmHg 49%
    18:00 +21°C° 0 mm 5 m/s 730 mmHg 52%
    19:00 +20°C° 0 mm 5 m/s 730 mmHg 55%
    20:00 +19°C° 0 mm 5 m/s 730 mmHg 58%
    21:00 +17°C° 0 mm 5 m/s 730 mmHg 61%
    22:00 +17°C° 0 mm 5 m/s 730 mmHg 64%
    23:00 +16°C° 0 mm 5 m/s 730 mmHg 67%
    Arată mai mult